Wind_Speed
23 23 22 22 22 22 22 21 21 20 19 20 21 21 22 22 22 22 22 23 24 24 25 25 25 26 24 23 23 24 24 24 21 14 16 20 20 14 8 6 9 10 11 11 13 15 16 16 17 16 12 10 7 7 8 6 6 3 2 3 5 8 3 1 1 2 4 9 9 8 9 10 8 9 8 9 12 12 13 10 10 12 13 17 22 27 27 26
23 23 23 23 22 23 23 22 22 21 20 22 22 23 23 23 24 23 24 24 24 24 25 25 25 25 25 23 22 23 23 21 20 21 25 25 18 13 10 9 10 11 13 14 16 18 16 14 15 14 11 9 7 8 9 6 7 6 3 4 6 8 1 2 0 3 3 7 10 6 8 10 8 9 8 9 13 11 12 11 11 15 17 20 23 26 26 25
24 24 24 23 23 23 24 23 22 21 22 24 24 25 25 25 25 24 24 24 25 25 24 25 25 25 24 22 21 20 18 17 18 16 18 18 15 10 8 9 11 13 16 17 17 18 17 16 16 13 11 9 8 10 9 5 7 5 3 5 6 10 4 3 1 4 3 4 9 6 7 9 8 8 8 10 13 11 11 11 13 16 18 19 20 23 25 25
24 24 24 24 24 24 24 24 23 23 24 26 26 26 26 26 26 26 26 26 26 25 24 23 24 24 23 21 20 16 13 15 10 0 5 13 12 5 4 6 11 14 18 19 17 18 18 17 17 15 12 10 9 11 9 9 7 4 4 6 7 13 8 3 1 4 6 4 7 7 6 9 9 7 7 11 11 9 10 12 15 17 19 20 20 22 22 23
24 24 24 24 24 25 26 25 25 26 27 28 28 28 27 28 27 27 27 27 27 25 24 22 23 23 21 20 16 12 10 8 1 9 13 14 8 3 2 4 9 13 18 19 18 18 18 17 16 14 12 9 10 10 10 12 10 7 8 9 10 12 10 1 3 4 7 7 6 6 6 8 8 6 6 11 8 7 11 12 17 19 20 21 20 20 20 20
25 24 25 24 25 27 27 27 27 28 29 29 29 29 29 29 29 28 28 28 28 25 24 22 22 21 20 19 13 8 7 5 4 5 13 11 6 3 2 3 7 12 16 18 18 18 17 16 15 12 10 10 13 11 10 13 12 9 9 11 10 7 11 5 4 4 4 7 8 5 6 7 8 7 5 8 4 6 15 14 17 20 20 22 20 20 19 20
26 25 25 25 26 28 28 29 29 30 30 30 30 30 30 30 29 29 29 29 28 25 24 22 21 20 19 16 9 6 8 13 14 7 11 5 5 5 3 4 7 12 16 18 17 17 15 16 15 12 11 11 13 12 11 14 16 10 7 13 12 10 13 5 4 4 4 6 8 6 7 7 9 8 6 6 2 7 17 16 18 20 21 22 20 19 19 20
26 26 26 27 28 29 29 30 31 31 31 31 32 32 32 31 30 30 30 29 27 25 24 22 20 18 14 10 7 7 11 15 9 10 6 3 6 5 4 5 9 14 16 19 17 16 15 16 16 12 11 11 12 13 14 14 15 13 9 13 15 14 11 3 3 7 6 4 5 7 8 7 8 9 7 7 6 9 17 16 18 20 21 21 19 20 18 18
26 26 28 29 29 30 30 31 32 32 32 32 32 33 33 32 31 31 29 28 26 24 23 21 19 14 7 5 7 8 13 10 10 11 4 6 9 6 5 8 13 15 16 19 18 17 14 13 15 14 12 12 14 13 13 12 9 12 11 11 12 10 8 5 8 7 7 6 6 8 9 8 6 9 8 9 9 9 16 17 18 20 19 19 19 19 18 18
26 26 30 31 30 31 31 32 33 33 33 33 33 34 33 32 33 31 28 27 24 24 21 18 16 8 4 6 8 9 9 6 8 9 6 9 10 8 8 11 15 15 15 17 18 18 14 12 14 13 13 12 13 13 15 13 7 10 9 9 9 8 7 8 9 8 8 8 9 9 8 9 7 7 7 10 12 9 16 17 17 18 18 18 18 18 17 17
26 28 33 33 32 32 32 33 34 34 34 34 34 34 33 33 33 30 27 25 23 23 18 16 12 5 7 9 8 8 6 6 6 7 8 8 9 9 10 12 14 15 15 15 17 18 16 15 13 9 9 9 12 14 16 14 9 12 10 7 9 10 9 10 11 10 8 8 12 10 8 9 9 6 7 13 13 11 16 17 18 17 16 17 17 17 14 14
28 31 34 34 33 33 34 35 35 35 35 35 35 34 34 33 31 28 27 25 22 19 13 13 9 4 8 9 11 17 16 15 12 8 9 10 10 11 11 12 14 15 15 14 15 18 17 17 15 12 9 8 11 12 13 14 12 15 13 8 12 12 11 13 12 10 9 9 13 11 8 9 10 7 9 17 13 12 16 16 17 16 15 16 16 15 13 13
31 34 36 35 34 35 35 36 37 37 37 37 36 35 34 32 28 27 26 25 20 14 10 9 5 5 9 8 14 24 25 22 18 16 14 12 12 13 13 13 14 14 15 14 14 16 17 17 16 15 13 11 10 10 13 13 11 14 14 10 9 11 11 13 12 11 12 10 14 11 6 8 11 8 9 17 14 14 15 15 16 15 14 14 14 14 13 13
33 35 37 36 35 36 36 37 38 38 38 38 38 37 34 29 27 27 25 22 16 9 7 6 5 5 8 10 17 24 23 21 18 18 17 14 14 14 15 15 14 14 15 15 15 14 15 17 16 13 12 13 12 12 15 12 8 10 12 9 7 7 7 12 13 13 12 11 16 12 5 6 11 10 10 16 15 15 15 15 16 15 14 14 13 14 14 14
35 37 37 36 36 37 38 38 38 39 39 39 40 38 32 28 26 25 22 17 12 6 4 5 8 6 7 12 19 21 19 19 18 19 18 17 16 15 16 17 17 16 15 16 16 14 15 15 14 11 10 13 14 13 12 10 8 9 10 9 8 7 6 9 12 14 12 11 15 12 5 5 9 11 11 15 15 15 15 15 15 15 16 15 13 14 14 13
35 37 36 36 37 38 39 39 39 39 39 41 40 34 29 28 25 22 17 11 7 4 6 4 11 11 8 7 6 8 13 17 18 18 17 17 18 16 17 18 17 17 17 16 15 14 14 13 11 10 11 12 12 11 9 9 9 9 9 9 9 10 7 7 11 15 12 10 13 12 6 4 7 11 13 16 16 15 15 16 16 16 16 16 13 13 13 13
34 36 36 36 38 40 40 40 40 39 40 41 38 32 29 26 21 16 9 5 3 6 9 8 9 10 9 8 5 6 11 14 15 15 14 16 18 17 17 15 14 15 16 16 15 13 13 11 8 9 10 10 11 11 10 9 8 7 8 9 10 11 9 7 8 13 13 10 11 12 9 6 7 13 15 17 17 15 15 16 17 15 14 15 13 14 14 13
34 36 36 36 39 41 40 40 40 39 41 39 33 31 30 23 15 8 2 5 4 6 11 12 9 6 8 11 12 12 13 14 13 11 13 13 15 15 14 11 11 13 14 12 13 13 11 10 8 9 10 11 12 11 10 11 10 10 10 9 10 13 12 11 9 9 13 12 11 12 11 8 7 12 17 17 16 15 15 15 15 15 15 15 14 14 14 14
34 35 37 38 39 41 40 41 40 38 40 36 29 28 23 14 7 4 6 8 7 5 6 7 10 8 6 8 12 13 12 13 13 11 13 13 12 12 11 10 11 13 12 9 12 14 10 9 10 10 10 12 14 14 14 14 15 15 13 11 11 11 11 9 10 10 13 13 12 12 11 9 9 11 16 16 15 15 14 14 14 14 15 15 14 13 14 15
35 35 38 39 40 42 41 40 39 37 36 34 30 24 13 6 3 2 5 8 10 11 13 8 13 14 13 14 9 7 5 11 13 12 15 12 11 12 11 10 12 12 12 11 12 13 11 10 11 13 14 16 18 19 20 18 18 19 14 13 14 11 8 8 11 14 14 12 12 12 12 11 8 10 15 15 15 16 15 15 14 14 14 14 15 15 14 15
37 35 38 41 40 42 42 40 39 33 29 28 24 15 7 8 6 6 7 10 14 17 21 21 18 18 19 18 14 8 5 10 13 14 15 12 10 11 10 11 13 11 12 14 12 11 12 12 14 17 18 19 19 21 22 20 20 20 16 13 13 10 9 11 12 15 17 12 11 14 14 13 11 11 13 14 15 16 16 15 14 16 15 14 15 16 15 13
37 35 40 41 40 41 42 41 36 27 22 18 12 10 7 9 7 10 12 12 15 18 22 24 24 22 21 22 23 19 13 11 16 16 15 13 11 11 10 12 13 11 13 15 11 10 12 13 17 20 18 19 19 20 22 22 21 18 14 13 10 9 9 10 12 15 17 9 9 14 14 12 15 15 13 13 14 13 14 16 14 15 15 14 16 16 15 14
36 36 41 41 41 41 41 40 31 19 15 13 11 11 10 10 10 14 11 11 15 17 19 22 23 22 21 22 23 22 18 14 14 16 18 15 13 12 11 12 14 14 14 15 13 11 11 13 18 19 18 20 21 21 22 20 18 15 13 12 10 11 10 8 11 14 17 10 9 13 11 10 13 15 14 14 15 13 14 16 15 14 13 14 16 15 15 15
37 38 40 41 42 40 40 39 24 12 13 16 16 12 9 10 12 15 11 8 12 14 17 23 21 19 21 20 20 21 18 14 13 14 18 17 13 13 13 13 14 14 14 17 19 16 13 13 16 19 20 21 21 21 21 17 14 16 17 14 12 13 14 11 9 11 14 11 10 10 9 8 10 14 14 14 16 16 15 16 15 14 13 13 15 16 16 16
39 40 40 41 41 40 42 32 15 17 23 19 12 6 8 12 12 13 11 6 9 10 14 18 14 15 22 21 19 19 16 15 16 15 16 18 15 12 11 11 11 13 16 19 19 16 16 15 16 19 21 22 21 20 21 17 12 15 19 19 17 16 16 16 12 9 9 8 10 9 8 7 10 14 13 13 16 16 14 15 16 14 14 13 13 14 16 16
40 40 40 40 39 42 37 16 12 27 25 11 8 11 12 13 12 12 8 5 8 8 9 11 10 13 19 17 15 16 15 15 16 17 17 19 18 13 11 9 8 13 16 16 13 9 13 17 17 18 20 22 21 18 21 20 13 12 16 21 22 20 17 16 16 12 8 7 10 11 9 6 8 13 14 14 15 15 14 15 16 13 13 13 13 12 14 16
40 39 41 40 38 39 25 12 21 28 15 7 14 16 15 13 14 12 6 5 6 6 8 8 8 11 14 15 16 14 11 9 13 19 20 20 20 15 13 12 9 12 12 10 10 8 12 19 19 19 20 19 18 16 19 22 15 11 15 20 22 22 21 19 17 12 8 8 10 13 12 8 7 10 14 16 15 12 12 14 16 15 14 15 14 14 14 14
39 40 40 38 38 33 18 19 24 18 12 15 19 17 16 15 14 9 5 5 3 3 8 5 3 6 8 12 18 16 9 6 10 17 21 23 21 15 15 16 14 14 14 11 10 11 14 18 20 20 18 15 15 17 20 22 17 13 16 19 20 20 21 19 16 10 9 10 9 11 12 9 8 8 10 14 15 12 12 16 17 17 17 17 15 16 15 14
39 40 38 39 39 27 12 15 19 17 19 20 19 18 17 15 12 5 4 6 4 1 5 6 3 6 9 11 17 18 13 9 8 13 20 23 22 16 13 16 17 16 17 16 13 12 13 15 18 19 16 13 15 18 20 21 17 15 18 19 18 19 19 17 14 11 9 9 9 11 13 9 8 8 9 12 15 15 16 16 16 16 16 16 15 16 15 13
40 40 38 40 36 21 14 17 22 23 22 18 17 19 16 13 7 5 7 6 3 2 5 6 6 11 13 13 15 17 17 13 8 12 17 17 20 17 12 13 16 14 15 17 16 16 15 14 15 16 13 12 15 18 20 22 19 18 18 17 16 16 15 13 11 10 8 8 10 14 15 12 9 9 9 10 12 14 15 15 15 18 18 16 14 15 16 13
40 40 39 39 33 20 15 16 17 15 16 14 15 16 12 7 4 7 8 3 4 5 6 6 10 14 17 17 14 15 19 16 11 13 14 13 17 16 12 11 12 11 12 13 14 17 19 16 12 12 14 15 16 17 18 20 21 18 15 13 12 11 11 10 9 10 10 10 12 15 17 16 12 9 10 11 14 16 16 15 19 21 20 17 15 16 16 13
40 41 39 37 33 23 15 17 17 17 16 14 14 11 6 5 7 10 8 2 4 8 8 10 12 14 18 19 15 16 18 15 13 15 14 13 13 14 14 12 10 10 11 11 12 15 16 17 14 13 15 18 17 13 13 16 18 17 14 12 11 9 9 9 9 10 11 11 12 16 18 16 12 11 13 14 15 18 17 15 16 19 19 17 17 16 14 14
40 43 39 30 25 21 21 21 21 18 15 13 11 7 5 8 10 10 11 8 4 4 5 10 14 15 18 17 15 17 18 16 15 16 15 16 13 14 18 18 15 13 10 11 12 11 11 15 19 16 13 17 18 12 11 13 14 15 14 12 11 9 9 10 10 9 10 11 14 18 17 13 10 11 16 19 16 16 17 16 15 16 16 15 16 17 16 15
43 41 33 26 23 22 22 20 18 15 13 10 7 6 9 12 9 9 13 13 10 9 6 4 9 14 17 15 14 15 15 15 18 17 16 16 13 13 16 20 22 16 10 11 11 10 12 12 16 17 11 14 19 16 13 13 12 13 13 13 12 10 9 9 8 9 10 10 13 17 13 10 10 8 13 19 18 16 16 16 16 14 14 14 15 17 16 16
44 34 26 24 23 22 20 19 17 13 10 8 6 8 13 12 8 8 11 11 12 15 14 12 11 12 14 15 16 18 15 14 18 19 15 15 14 13 14 17 22 20 12 10 8 10 15 11 13 19 16 15 19 18 15 13 12 12 14 14 13 12 10 8 10 11 11 10 10 11 9 8 9 8 10 15 17 20 19 16 16 14 14 14 14 16 15 15
40 30 24 22 19 18 16 15 15 13 10 7 7 11 13 10 8 8 8 9 11 13 15 16 14 12 12 12 14 20 19 15 18 17 14 17 16 17 16 14 20 23 16 11 7 9 12 10 13 20 21 20 18 17 17 15 11 9 13 15 14 15 13 10 11 12 11 11 9 9 9 9 9 9 12 13 15 18 18 18 17 15 15 15 12 16 16 15
33 27 23 24 23 20 15 11 13 13 10 7 11 13 11 10 13 12 10 11 13 13 13 13 11 12 13 12 12 18 19 16 17 14 12 16 16 18 20 16 20 25 22 15 10 9 10 9 13 20 21 22 19 17 20 20 15 10 11 14 13 15 15 9 9 10 11 11 8 10 13 12 10 8 9 14 17 16 16 18 18 15 16 16 14 18 18 17
28 24 24 25 20 16 14 10 11 11 7 8 15 16 12 12 14 15 15 16 17 16 14 11 10 12 13 12 12 16 18 14 15 14 12 13 13 17 21 17 18 24 26 22 13 9 10 8 11 18 19 19 19 17 16 19 23 19 13 11 12 13 13 10 8 9 12 10 7 12 15 13 12 9 9 16 17 15 15 17 17 16 17 16 13 18 20 19
24 17 14 12 6 4 8 7 9 9 7 10 13 13 12 14 16 18 20 19 18 16 15 13 12 12 13 14 13 15 17 16 15 14 12 11 10 17 21 16 17 22 26 24 14 9 10 8 8 14 18 17 16 14 13 15 21 22 17 13 11 11 11 10 9 9 11 10 9 13 13 10 10 10 12 16 17 16 15 13 14 17 17 15 13 16 19 17
16 8 9 13 7 3 5 6 9 9 9 11 12 11 11 13 15 19 22 22 17 12 13 15 14 13 14 16 15 14 15 17 17 15 12 12 11 15 19 18 17 20 24 26 19 12 10 8 8 10 16 16 12 13 15 13 14 15 15 15 12 10 9 10 11 11 10 9 8 10 11 9 8 10 11 12 15 18 16 12 13 15 16 15 14 16 19 17
12 6 8 15 10 2 5 9 8 8 9 11 13 14 14 14 14 17 21 22 18 14 15 17 17 15 14 15 15 14 13 14 16 14 12 14 14 11 15 18 18 18 20 21 19 14 9 8 9 10 11 14 13 15 18 17 15 14 13 14 14 11 10 11 12 12 11 10 9 9 10 9 8 8 7 7 9 16 17 16 15 16 17 18 16 13 17 17
10 7 9 19 20 11 9 10 8 8 10 11 13 15 15 14 16 18 19 20 18 16 17 18 18 17 15 15 16 14 13 13 14 15 13 16 18 13 13 17 19 19 17 15 17 16 11 7 9 11 10 12 16 19 21 21 20 17 15 15 16 14 12 11 10 10 11 12 13 12 11 9 7 7 6 8 9 11 17 17 15 17 19 19 19 12 16 19
7 8 16 30 32 20 11 10 10 10 11 13 16 18 17 15 16 17 17 19 18 15 15 15 18 18 16 16 17 16 15 13 15 18 16 15 19 18 17 19 21 21 16 12 15 16 12 8 9 10 9 11 15 18 20 21 20 16 15 16 16 17 17 13 10 9 10 13 14 12 11 9 8 6 6 8 9 11 14 14 13 14 15 18 19 12 14 17
8 10 14 26 30 19 11 11 12 11 12 15 18 19 19 17 18 19 18 18 16 15 15 15 16 18 17 17 17 16 16 13 14 19 17 15 16 20 24 24 21 18 15 12 11 12 10 9 9 9 8 9 12 14 16 18 16 12 12 16 18 21 23 19 13 9 10 14 16 13 10 10 8 6 6 8 11 13 13 11 11 12 11 14 14 9 13 14
8 8 8 16 21 15 10 11 12 11 13 17 19 19 17 15 16 19 21 21 19 17 16 15 16 16 16 18 18 19 19 16 13 14 15 15 15 16 24 26 21 18 14 9 9 12 11 9 10 10 11 11 11 11 11 13 12 11 14 19 20 23 26 20 13 10 9 11 15 15 10 7 9 9 10 11 12 10 8 9 11 11 9 7 4 9 13 12
7 7 7 8 10 9 9 12 13 14 14 13 13 13 15 14 13 16 17 18 21 22 18 17 17 17 15 16 17 18 21 21 17 14 14 14 13 13 19 22 22 19 8 3 4 10 9 9 12 13 12 11 10 10 10 12 14 14 18 22 22 23 24 19 12 12 11 8 10 12 9 8 9 12 13 14 15 10 8 10 12 10 7 5 3 8 10 9
5 7 7 7 7 7 8 8 11 11 8 8 7 9 16 17 14 15 15 12 14 18 16 15 16 16 18 18 16 16 20 22 20 18 18 16 15 15 18 22 21 15 9 2 4 6 8 11 16 19 18 17 14 14 16 17 17 18 21 23 23 22 24 21 16 16 13 10 11 10 8 9 12 12 12 12 13 12 8 11 11 8 5 6 5 8 11 11
6 6 8 9 8 8 9 10 11 11 10 9 8 10 16 18 15 14 12 13 15 14 9 10 14 15 16 16 13 11 14 17 19 19 19 17 17 17 16 21 22 13 10 9 9 5 8 13 17 20 22 24 22 20 20 18 17 18 20 22 23 23 24 23 20 20 17 11 11 10 9 11 14 16 15 10 10 12 10 10 11 8 6 6 6 8 11 13
7 7 8 9 9 10 14 16 16 16 15 12 9 10 14 16 17 15 12 12 14 13 11 11 14 18 18 18 14 9 9 9 10 13 14 14 16 17 13 16 20 17 15 16 13 8 9 11 15 18 20 26 28 24 23 21 18 19 20 20 21 22 24 24 22 23 21 16 17 17 13 12 14 16 18 15 10 9 8 7 10 11 9 9 6 9 14 15
7 6 6 7 8 10 13 16 15 14 13 11 9 10 12 13 16 15 12 11 12 12 10 11 15 18 18 17 15 11 12 15 13 14 16 15 13 12 11 12 16 17 18 16 12 10 10 8 12 16 14 18 24 24 25 25 22 21 19 18 20 21 22 24 21 21 20 18 21 23 15 10 12 13 15 16 12 10 8 7 9 11 12 13 13 12 14 14
10 10 8 6 8 10 11 12 12 11 10 9 9 10 11 13 14 14 13 12 13 14 11 11 14 15 15 16 16 15 16 18 19 20 21 18 14 14 12 12 15 15 16 16 13 12 11 9 10 12 10 12 16 20 25 25 23 23 21 21 23 22 20 20 19 19 18 16 18 19 14 10 10 12 13 15 15 14 13 12 12 9 13 16 16 14 14 13
10 9 7 5 7 9 9 10 11 11 9 9 10 11 12 13 13 13 11 9 10 13 13 12 11 9 12 15 15 16 18 21 22 22 20 18 18 18 15 17 20 14 9 12 15 13 12 10 9 10 10 11 14 17 19 20 19 18 19 21 22 21 20 20 16 16 18 17 14 13 11 8 7 10 14 16 16 15 13 13 14 12 10 13 14 13 14 13
Wind_Direction
355 354 352 350 349 348 347 347 345 346 348 346 343 340 338 338 336 336 335 332 331 329 327 326 325 325 325 327 326 320 316 315 308 278 245 259 269 271 273 238 232 228 187 183 196 181 185 200 205 207 217 216 212 222 191 200 232 186 210 251 262 267 278 86 11 44 118 119 132 155 132 126 128 109 118 134 125 129 131 127 121 120 124 120 126 136 140 140
353 352 352 349 348 347 345 345 343 344 349 347 344 341 339 336 334 334 332 331 329 326 325 324 324 323 323 326 327 320 319 313 290 275 268 263 255 246 259 259 244 227 193 196 203 191 190 194 202 211 223 224 216 218 175 175 231 194 218 244 244 264 243 129 182 89 114 124 127 148 136 133 130 122 160 154 126 140 140 126 120 115 116 118 129 139 143 143
352 351 350 349 346 346 344 344 342 344 349 347 343 340 338 336 334 332 329 329 326 325 323 322 322 322 322 326 327 322 322 306 281 275 268 244 217 217 253 250 233 228 207 205 210 202 200 196 202 213 222 226 225 219 170 175 247 181 205 258 251 268 259 129 149 115 121 136 129 144 139 128 130 141 179 151 133 157 150 137 135 126 127 134 140 144 147 147
351 350 349 347 346 345 343 342 343 347 349 345 343 340 338 336 333 330 328 326 324 323 321 320 321 319 321 326 325 326 317 293 279 138 161 176 177 205 265 247 231 229 216 214 219 213 210 206 205 210 221 229 228 225 186 183 214 171 203 252 267 282 287 116 116 130 142 164 133 139 150 135 138 157 176 147 145 163 154 152 143 138 142 144 147 149 151 151
350 349 348 346 345 345 343 344 346 348 346 343 341 339 337 335 333 329 326 324 322 321 319 319 318 317 320 323 325 324 308 292 78 117 144 159 169 232 274 259 241 224 215 219 227 221 215 217 214 210 221 233 230 221 200 193 189 184 200 233 261 283 294 199 155 171 150 158 143 155 163 137 139 161 171 154 169 169 149 153 142 143 148 147 152 151 154 156
349 348 347 345 345 347 347 347 348 346 343 341 339 338 337 335 332 328 325 322 321 319 319 318 316 317 316 320 322 304 278 284 321 145 154 169 185 205 228 243 236 213 210 221 229 226 212 217 222 214 219 231 244 233 208 201 189 201 198 215 247 261 271 255 156 180 149 162 168 164 137 133 157 158 161 166 190 148 138 145 141 144 148 148 153 155 161 160
348 347 345 345 348 349 349 348 346 344 341 339 337 336 335 333 331 327 324 321 319 317 318 316 315 314 315 320 307 261 241 267 275 198 152 171 181 167 188 220 218 197 205 220 224 226 211 213 220 217 223 222 245 247 237 219 195 213 203 197 221 220 240 246 142 183 172 182 166 148 134 158 183 149 155 173 143 121 131 139 141 141 146 149 155 161 164 161
347 346 345 346 349 349 348 345 343 341 339 338 336 335 333 331 329 326 323 320 318 317 316 314 312 312 318 325 293 255 252 262 229 166 161 172 168 162 174 198 201 188 203 218 218 223 213 213 221 218 227 225 235 235 246 244 201 206 195 188 214 216 225 236 212 200 173 187 145 155 157 166 184 145 165 168 123 123 127 134 140 141 149 152 158 164 165 166
346 346 347 348 348 347 346 343 342 340 338 336 333 333 330 329 327 325 322 318 317 317 316 311 308 310 314 305 284 273 270 259 146 144 186 171 172 175 185 191 190 188 204 218 219 226 218 215 222 221 231 235 240 234 241 251 212 213 199 190 222 220 214 212 232 212 169 179 162 182 168 159 170 139 167 160 129 132 128 136 143 146 155 154 160 166 166 172
345 345 347 347 346 346 344 342 341 339 337 334 332 330 328 327 325 323 320 316 317 317 315 307 303 305 272 253 260 268 276 262 161 162 167 163 172 175 207 201 187 194 206 215 222 227 225 222 223 226 240 243 248 247 244 245 239 256 234 199 226 235 217 207 228 223 193 181 172 190 169 158 164 149 179 150 139 151 136 141 147 150 160 159 163 165 167 176
343 344 346 346 344 344 343 341 340 338 336 333 330 328 326 325 323 322 319 314 316 316 313 302 295 271 253 255 254 257 259 269 242 194 175 182 191 193 217 207 190 201 209 214 222 228 232 233 233 234 239 245 253 254 253 254 260 264 248 205 220 239 232 216 223 223 215 187 170 185 180 166 167 181 187 145 146 162 143 144 151 157 163 163 166 163 168 179
343 344 345 346 344 343 342 340 339 337 335 332 329 326 324 322 320 319 315 312 316 315 308 294 280 232 261 262 243 246 254 273 282 257 215 205 216 218 222 215 200 204 214 220 221 225 232 236 240 243 239 239 247 256 260 258 266 267 259 237 212 214 227 222 217 217 218 190 169 179 187 180 178 195 171 143 150 164 151 151 154 161 165 164 167 164 170 179
343 345 346 345 344 343 341 339 338 337 335 332 328 325 322 319 317 315 311 310 313 311 298 282 252 226 263 262 245 249 255 263 265 261 245 218 219 224 224 226 216 210 219 228 229 225 228 233 238 243 247 249 242 253 260 247 255 265 264 270 236 208 211 213 210 214 215 183 163 175 197 192 180 197 173 144 155 169 160 158 158 163 164 167 170 165 173 180
342 344 344 343 343 342 341 338 337 336 334 331 328 324 320 316 313 309 307 307 307 305 283 244 191 220 251 254 262 261 258 258 253 252 251 231 221 224 221 224 226 226 226 230 238 235 229 229 235 241 245 251 257 265 268 261 263 258 248 254 259 253 219 196 199 211 211 169 157 171 207 208 177 187 183 148 158 175 166 164 164 165 165 171 174 167 174 182
341 342 342 341 342 341 339 337 336 334 333 331 326 322 318 315 310 304 303 303 299 281 250 206 187 216 263 259 267 268 254 253 252 245 248 236 222 226 223 218 223 229 230 230 233 237 237 230 227 236 238 240 255 263 265 261 251 243 239 228 218 246 247 202 200 207 205 161 160 179 193 209 181 184 184 154 163 180 171 170 170 170 168 171 175 170 176 182
340 340 340 340 342 341 338 337 335 333 333 330 324 320 317 314 306 300 299 295 285 208 172 191 196 209 270 280 269 256 228 231 242 239 240 231 219 223 223 217 218 220 226 227 224 228 233 234 228 228 233 233 236 245 254 256 243 225 231 243 221 215 224 216 206 201 193 163 170 192 194 211 195 191 189 162 167 184 178 175 174 175 171 170 175 175 179 181
339 339 339 340 341 340 338 336 334 333 333 328 324 320 316 311 300 295 292 255 232 181 195 244 225 212 252 281 294 258 219 217 231 227 219 220 215 218 219 213 212 211 216 219 216 222 221 226 232 224 227 230 225 225 233 240 244 227 215 238 243 230 217 199 198 190 181 174 184 195 207 237 205 188 186 166 169 187 184 179 178 179 175 171 177 179 179 181
339 338 339 340 340 339 337 335 333 333 333 327 323 320 314 309 298 289 241 174 183 203 228 251 258 241 236 247 251 248 234 214 213 210 196 202 212 222 222 207 204 206 207 212 210 214 214 212 218 222 219 220 222 220 223 224 228 230 214 216 240 244 229 196 182 185 180 183 191 198 207 228 226 189 175 168 175 186 188 185 181 181 179 174 179 183 180 184
339 339 340 339 338 338 335 333 332 333 333 328 327 326 316 304 294 241 198 185 180 211 245 216 199 220 271 266 232 234 244 200 184 199 190 191 202 215 227 210 202 205 202 204 202 202 207 206 210 221 217 211 215 216 221 224 228 238 228 216 224 236 241 208 180 180 185 190 194 205 204 198 228 199 166 170 181 184 190 190 184 184 183 178 182 188 184 185
340 339 341 340 338 337 334 332 331 332 333 327 327 330 320 311 306 219 210 223 225 246 275 257 205 224 270 289 252 214 216 170 177 204 191 190 198 201 218 213 205 207 208 208 198 197 206 211 212 215 216 213 213 217 224 227 232 245 246 233 228 227 240 230 200 180 183 201 196 206 208 180 207 205 170 177 187 184 191 192 188 186 186 183 183 190 190 189
340 339 342 341 337 335 334 331 329 332 329 320 318 313 328 2 342 330 325 284 259 252 262 263 248 246 255 266 263 241 212 179 192 206 195 201 212 205 204 204 211 208 208 218 205 194 208 219 218 215 217 218 215 217 222 228 233 240 249 248 241 232 226 229 219 181 177 206 195 198 215 183 187 214 187 182 190 191 192 191 193 191 188 187 185 188 192 191
339 340 342 341 338 334 332 331 330 330 322 313 297 275 322 6 347 331 324 294 277 260 257 259 255 256 250 249 255 256 256 222 202 203 206 213 215 210 194 193 216 214 200 216 213 197 209 223 222 216 216 219 222 220 218 226 232 234 244 251 251 248 233 228 226 186 172 202 198 193 217 198 188 209 203 189 195 202 199 193 195 195 190 187 186 187 192 192
338 340 341 342 339 333 330 331 329 323 313 302 280 282 327 351 335 330 315 287 286 268 251 248 244 245 243 239 238 240 248 239 219 206 201 209 213 210 206 198 212 220 205 208 215 210 211 220 221 220 218 217 221 222 217 222 230 234 239 242 248 252 243 232 227 194 172 189 210 195 210 218 201 200 200 201 205 205 205 201 197 197 196 190 189 187 191 194
338 340 341 342 340 334 330 329 326 325 321 303 288 292 333 339 332 334 319 282 284 272 240 234 233 233 234 230 221 222 231 231 232 217 194 200 212 207 215 213 210 221 217 210 217 224 226 218 213 218 220 218 219 221 219 218 223 231 236 237 243 249 249 249 231 184 165 187 216 208 207 220 219 209 199 203 208 203 200 203 199 194 196 198 196 190 191 195
338 339 340 340 341 336 330 326 328 339 327 309 305 330 345 335 337 336 322 277 270 270 236 224 224 226 224 222 214 212 222 223 224 225 203 199 207 205 213 218 214 222 222 218 220 227 233 224 209 212 219 218 218 219 219 219 219 225 231 236 241 243 244 247 236 189 168 195 205 208 222 216 219 223 211 202 205 201 196 201 202 194 189 196 204 196 190 194
337 338 338 339 340 338 335 329 336 334 321 310 354 355 335 333 338 327 306 268 272 264 215 193 191 200 203 206 205 203 218 224 216 220 217 205 205 213 216 211 217 225 223 223 226 229 230 228 217 211 215 217 219 221 218 217 222 222 222 229 239 245 246 249 246 221 192 204 200 203 227 228 220 226 219 212 209 203 200 202 204 199 189 192 202 204 196 194
335 334 335 337 337 338 336 307 319 325 309 325 354 337 325 330 327 316 289 267 273 226 177 167 163 166 182 192 186 189 209 212 202 210 216 204 198 211 223 215 212 224 227 223 226 226 220 224 224 214 214 216 217 221 217 215 223 225 218 222 229 238 246 251 249 231 197 202 210 211 221 231 231 224 216 215 212 206 211 213 208 204 198 196 200 202 203 201
333 332 334 335 333 333 316 284 302 309 290 319 333 323 322 323 309 301 271 271 293 143 148 151 130 151 188 186 177 193 214 203 198 199 204 203 193 198 221 224 221 218 221 228 229 224 217 221 224 218 216 217 218 219 216 217 224 228 223 225 226 228 239 249 250 236 210 209 217 216 220 232 233 220 216 218 213 206 216 223 217 207 199 199 203 204 204 204
331 331 332 332 331 332 316 276 274 279 292 309 317 315 315 308 296 283 251 260 303 351 153 150 137 171 197 182 182 206 218 227 225 180 190 202 193 197 219 225 232 227 218 228 237 232 223 218 223 225 220 217 222 221 218 219 223 227 227 230 231 227 228 238 248 250 239 230 225 211 210 229 243 223 218 224 219 208 209 219 219 214 205 196 199 207 207 200
330 329 330 331 328 329 330 291 262 272 292 297 307 312 305 294 278 230 233 232 249 246 136 145 175 178 190 187 192 210 209 222 227 167 183 196 186 202 224 219 231 240 225 224 233 243 242 222 216 229 230 221 222 222 221 223 223 225 228 231 235 234 230 227 233 247 256 245 230 219 210 219 241 235 222 225 227 220 214 210 209 213 210 196 195 207 209 202
329 327 327 326 316 308 313 289 267 291 310 307 314 310 292 273 236 227 230 223 254 226 135 152 188 177 187 195 196 205 205 214 206 171 183 192 182 197 217 212 219 236 235 226 225 234 243 236 215 216 227 229 227 222 220 222 222 223 224 226 229 234 237 231 218 223 239 241 232 231 225 223 232 236 227 222 221 227 228 212 205 207 203 193 196 208 206 201
328 326 323 318 309 294 269 264 286 311 316 312 309 300 270 232 226 230 226 219 261 226 181 189 200 185 192 202 202 198 201 210 200 182 185 192 189 194 206 208 199 207 225 227 219 220 229 238 230 212 213 227 230 218 215 220 219 218 219 221 222 224 229 230 221 218 232 240 230 229 230 229 232 233 232 231 221 222 228 220 211 207 202 195 194 199 199 195
327 324 319 313 306 282 255 266 288 293 297 301 289 274 244 237 231 215 219 231 246 243 192 194 208 202 196 205 211 199 199 207 201 192 192 196 199 199 205 211 205 204 213 217 219 218 218 228 232 223 204 216 227 216 208 216 212 212 214 216 217 218 223 226 226 229 235 236 228 230 234 233 234 227 224 231 232 228 224 219 216 209 201 190 183 191 196 193
325 323 318 312 304 283 265 265 267 266 277 279 261 240 228 235 233 211 219 227 242 275 282 237 226 214 202 208 216 204 200 208 205 199 195 198 206 204 204 210 212 212 214 216 218 218 220 219 220 224 209 201 216 219 215 214 212 213 217 222 223 221 224 225 222 226 234 237 235 235 236 232 232 219 210 219 226 230 229 222 216 207 197 190 185 192 195 190
326 325 317 303 292 282 267 248 238 245 254 247 238 230 225 229 232 228 232 230 240 261 269 268 257 233 216 212 216 216 213 209 205 205 203 203 210 210 202 205 211 212 212 216 218 216 227 227 206 215 220 206 207 215 218 218 216 211 213 223 225 221 224 233 236 234 233 236 239 236 234 231 228 212 210 221 221 221 224 223 216 201 200 208 193 184 186 188
326 322 312 293 278 275 263 230 213 222 231 234 234 228 227 235 237 235 243 243 240 247 258 259 248 240 233 217 214 220 221 216 205 205 209 208 213 216 211 204 205 210 213 213 216 215 225 230 203 205 217 214 208 207 209 219 223 208 210 220 221 222 224 232 245 244 235 234 238 237 239 237 226 208 207 222 228 223 217 218 217 197 200 218 189 170 183 190
322 318 307 289 278 271 256 209 192 210 226 232 234 235 238 242 245 252 261 267 270 264 259 252 237 237 238 227 219 215 216 218 210 208 209 208 212 215 215 213 204 206 213 216 226 228 228 237 210 203 211 211 206 206 208 216 227 225 213 209 211 224 228 228 240 239 230 232 236 236 239 239 235 217 201 212 223 223 214 214 214 190 191 214 190 168 182 191
311 307 297 289 283 258 232 199 193 214 227 233 240 246 251 250 251 258 264 273 284 280 268 260 245 238 236 233 229 218 214 214 213 217 215 210 213 210 212 218 208 204 209 214 225 228 226 244 221 207 209 201 195 206 212 211 220 233 234 207 201 218 221 216 228 233 230 231 230 233 237 238 237 226 200 207 213 213 208 210 216 203 194 207 189 167 177 189
299 296 290 300 318 197 196 194 210 228 232 235 243 244 247 255 258 264 272 278 284 280 269 265 258 250 245 240 235 227 221 217 218 223 219 215 213 204 207 214 211 205 204 208 221 230 223 240 234 209 201 191 186 201 215 207 209 225 239 230 216 219 217 213 222 234 236 234 229 231 234 234 239 235 215 205 199 198 201 201 215 222 214 206 192 173 176 183
301 301 284 288 295 154 180 229 237 240 236 239 249 253 253 256 256 259 264 268 274 274 266 264 260 255 254 248 243 238 231 224 223 222 219 222 220 208 206 210 213 209 201 202 212 223 222 229 240 216 194 192 194 199 210 211 202 210 228 233 228 220 218 222 226 229 230 234 236 234 236 234 233 238 231 210 187 182 195 205 206 219 230 224 209 185 174 174
312 300 272 280 284 182 219 251 245 238 243 246 250 256 260 264 265 262 259 259 261 259 262 268 266 262 261 255 248 242 240 237 229 224 218 220 226 222 208 206 212 211 202 201 207 213 219 219 229 230 205 200 206 201 204 213 209 205 215 227 229 219 211 219 225 223 219 225 233 238 240 233 229 240 243 236 203 179 192 215 207 201 221 238 237 198 164 163
300 271 282 302 312 313 273 258 251 246 248 251 254 258 261 263 264 264 262 262 262 258 257 259 260 263 262 259 256 251 251 248 239 235 225 216 221 226 214 206 209 213 209 205 203 205 215 222 222 230 228 219 213 203 201 209 214 215 214 218 227 226 218 218 221 221 221 220 223 237 245 232 225 236 236 246 242 199 195 211 210 200 203 224 243 221 163 163
287 285 295 299 302 302 282 260 258 257 253 256 260 262 263 262 261 260 259 257 257 258 256 252 252 254 255 257 260 261 260 256 250 247 241 228 221 220 224 220 211 210 211 208 203 199 204 222 222 222 235 240 229 211 200 202 209 218 220 213 217 224 227 229 224 217 226 228 223 230 240 231 223 224 221 239 254 231 206 196 204 213 203 207 228 218 162 165
295 295 289 287 286 280 264 256 256 254 256 259 258 254 254 255 256 257 255 253 252 252 252 251 249 246 247 253 257 261 262 259 256 255 254 252 231 212 216 224 218 211 210 205 200 193 194 214 218 212 217 229 232 218 200 200 206 213 221 220 217 220 226 233 235 223 224 228 227 233 235 220 215 213 214 231 243 236 217 196 210 229 213 204 210 176 147 155
297 288 276 281 278 264 246 250 257 259 258 260 261 260 260 259 257 257 256 254 252 251 252 252 254 255 253 249 249 254 258 258 260 261 261 264 255 221 213 217 213 209 217 222 211 202 197 203 209 212 212 208 217 220 201 196 206 211 217 222 223 221 222 227 234 235 231 219 221 235 244 222 203 199 204 223 232 224 200 204 235 237 210 199 177 137 143 151
297 289 287 289 279 261 249 249 254 258 263 270 276 284 293 296 293 290 284 267 252 250 253 252 253 257 258 256 252 249 250 253 257 262 262 264 267 243 225 224 213 195 184 354 258 215 209 206 206 215 224 218 215 226 217 201 205 212 213 217 224 225 224 223 226 233 238 234 228 231 240 245 229 207 199 212 226 221 175 192 238 245 203 192 156 133 140 152
279 278 287 304 306 292 284 268 256 259 284 311 315 307 302 300 302 309 314 304 278 267 261 260 263 256 247 252 258 252 250 249 248 255 259 261 271 257 235 237 230 187 134 40 262 221 226 220 209 210 223 234 233 228 225 215 211 214 214 215 220 225 227 225 225 227 226 234 244 232 222 245 250 232 210 202 217 228 194 183 220 243 203 188 160 134 144 159
270 274 288 302 301 289 292 294 286 285 296 303 297 292 293 292 293 299 311 319 317 314 304 297 309 304 280 274 282 283 273 256 244 249 250 248 262 263 240 237 235 194 160 225 237 229 237 229 218 212 214 225 235 237 234 227 219 219 221 218 215 218 227 231 230 229 224 229 244 235 216 230 245 248 244 227 213 225 218 193 203 220 212 190 149 148 179 180
276 278 290 303 301 292 292 291 289 287 282 277 273 270 274 283 285 286 297 310 312 322 333 322 321 326 321 320 322 323 330 314 277 270 272 263 259 256 246 244 237 203 190 220 227 232 244 231 230 233 219 213 220 231 240 240 230 222 222 224 220 215 220 230 236 235 230 232 243 240 228 224 235 246 252 252 240 232 232 206 194 196 212 229 211 195 207 198
273 285 299 310 304 298 296 288 282 282 277 271 268 257 253 265 276 279 287 298 298 307 324 317 313 320 323 324 322 324 350 350 327 314 316 313 295 271 259 258 246 217 207 220 222 224 238 228 227 242 244 223 214 217 230 240 242 237 227 223 229 229 221 221 228 237 236 234 237 240 239 235 236 241 250 255 254 254 259 242 213 193 194 223 245 238 227 212
275 290 296 299 294 291 294 290 285 281 275 267 268 268 258 253 259 266 268 271 280 290 297 298 307 317 314 312 318 325 336 335 321 316 315 310 303 293 285 277 263 234 213 219 220 216 225 226 222 230 244 242 225 216 220 229 241 250 243 228 226 232 235 228 216 218 231 240 241 239 237 233 229 232 244 249 243 244 251 249 246 223 193 206 225 230 234 232
285 294 284 270 276 280 285 291 290 283 278 279 276 278 281 279 277 276 272 264 267 278 290 299 305 314 307 306 314 321 323 320 313 311 307 296 288 284 287 289 279 261 229 223 218 211 219 224 222 225 227 233 236 230 223 222 229 239 242 240 234 230 237 243 228 210 219 233 243 246 245 243 229 222 233 240 235 232 235 240 249 248 218 208 216 216 224 232
Height
802 801 799 797 794 793 791 789 787 785 784 782 780 778 776 775 773 772 771 769 767 764 763 761 759 758 756 755 753 750 747 745 742 741 738 732 729 730 731 731 731 732 734 735 735 736 736 737 734 733 735 735 738 738 738 739 738 749 766 776 775 768 754 739 735 731 729 733 731 726 723 733 738 732 726 725 733 738 743 744 740 740 742 745 752 757 761 765
802 801 798 797 795 793 791 789 787 785 784 782 780 778 776 774 772 771 769 768 766 764 762 760 758 757 755 754 752 749 746 743 741 736 729 726 728 729 729 729 730 731 732 734 733 732 734 735 732 732 736 737 736 733 737 739 739 752 764 771 768 756 740 725 724 723 723 728 728 724 722 728 734 732 727 734 745 742 748 750 745 750 751 751 755 759 763 765
802 800 798 797 795 792 791 789 787 785 783 782 780 778 775 773 771 769 767 766 764 763 761 759 757 755 754 753 750 749 746 742 739 729 719 720 725 726 728 728 728 729 729 731 730 729 730 730 729 731 737 739 734 730 737 743 742 745 755 768 757 739 729 717 717 719 719 721 724 727 721 725 729 726 727 736 746 745 750 752 751 760 761 759 758 759 763 765
802 800 798 796 794 792 790 788 786 784 783 781 779 777 775 772 770 768 766 764 762 761 759 757 756 754 753 751 751 749 746 745 735 721 717 720 723 725 726 726 726 727 727 728 728 727 725 724 725 728 736 740 732 726 736 742 741 742 750 763 747 730 731 719 714 716 715 716 721 725 724 728 725 722 726 733 746 750 746 744 747 758 759 759 759 758 762 765
802 800 798 796 794 791 789 787 785 784 782 780 778 776 774 772 769 767 765 763 761 759 758 756 754 752 752 750 751 748 749 752 731 715 719 720 721 723 723 724 724 725 726 728 727 724 723 722 722 727 735 738 732 729 734 727 727 740 743 746 736 729 735 721 711 713 712 715 720 725 727 727 722 723 725 730 745 744 737 735 738 747 752 754 757 758 761 764
802 800 798 795 793 791 789 787 785 783 781 778 777 774 773 771 768 766 763 761 759 758 756 755 753 751 751 749 750 748 753 751 723 714 720 718 720 721 721 723 722 723 725 727 725 722 722 722 725 732 735 737 734 729 728 716 716 736 738 734 730 726 731 718 709 711 710 717 724 723 722 720 725 730 724 726 733 725 722 727 732 740 745 750 754 758 761 763
802 799 797 795 792 791 788 786 784 781 779 777 775 773 771 769 767 765 762 760 758 755 754 753 751 750 749 748 748 747 749 739 717 716 719 717 720 718 720 721 720 723 724 724 723 721 721 724 729 730 734 739 735 727 720 710 710 727 733 730 726 722 722 713 708 710 709 716 718 715 718 722 730 732 726 727 724 715 717 723 728 737 742 748 754 757 760 761
802 799 797 794 792 790 787 785 782 780 778 775 773 771 769 767 765 763 760 759 756 754 753 751 750 749 748 748 746 745 741 726 713 716 716 716 718 716 719 719 719 721 721 722 720 718 719 725 727 725 735 736 728 723 716 711 713 720 725 724 721 718 714 707 708 709 709 712 711 713 722 725 723 725 728 727 721 715 718 723 728 736 742 748 754 757 758 760
802 799 796 794 791 789 786 784 781 779 776 773 771 768 767 765 763 761 758 756 754 754 751 749 749 747 749 747 745 747 733 714 710 714 714 716 716 716 718 717 719 719 720 721 716 715 717 723 723 719 730 728 720 718 712 717 720 709 708 712 714 713 708 707 709 708 710 710 711 719 725 724 716 720 731 725 720 718 718 726 731 736 744 748 753 756 757 759
802 799 796 794 791 788 786 783 780 777 774 772 769 766 764 762 760 758 756 754 753 752 750 749 748 746 749 745 747 747 723 708 711 711 712 715 715 716 717 716 718 717 718 718 714 714 713 716 714 709 718 720 717 715 710 713 710 697 697 703 707 709 705 707 710 707 708 708 711 722 727 723 715 724 737 725 717 719 722 730 733 738 745 747 751 753 755 758
801 798 796 793 790 788 784 782 779 776 773 770 767 764 762 759 757 756 754 753 751 750 749 747 746 746 747 744 747 740 715 708 711 709 712 713 714 715 714 715 715 716 715 714 714 711 710 709 705 708 719 719 718 717 708 699 696 693 697 704 706 707 706 706 710 708 707 710 709 716 725 723 719 728 733 722 718 719 725 734 735 740 744 745 749 751 754 756
800 798 795 792 789 786 783 781 777 775 771 768 765 762 759 757 755 753 751 750 749 748 747 746 746 746 746 744 739 725 711 710 709 708 710 710 712 713 712 713 712 713 713 711 711 709 709 707 704 716 719 716 722 725 711 693 694 696 696 709 711 709 713 708 707 706 706 711 704 710 733 735 729 730 721 715 719 719 726 734 737 740 742 744 747 750 753 753
799 796 794 791 787 784 782 778 775 773 769 766 763 759 757 754 752 751 749 747 747 746 746 745 744 745 749 742 723 712 710 710 709 707 707 707 710 710 710 711 710 711 711 710 709 707 709 707 708 715 712 714 723 717 703 691 697 704 702 711 715 718 721 707 703 705 705 707 698 714 752 751 733 725 714 712 719 722 729 734 736 740 741 744 746 749 753 752
798 795 792 789 786 783 779 776 774 770 767 764 760 757 754 751 750 748 746 746 745 745 744 744 744 746 748 734 712 708 708 706 707 705 704 705 706 708 708 709 709 709 709 709 708 706 707 705 706 711 710 714 714 706 705 703 705 712 714 717 722 732 725 701 698 705 707 703 694 717 757 754 731 723 713 711 717 723 732 734 735 739 740 743 744 748 752 751
797 794 791 788 784 781 778 774 771 767 765 761 757 754 751 749 747 744 744 744 743 744 742 743 744 744 744 728 707 703 703 703 703 702 703 702 703 705 705 706 708 707 708 708 707 706 705 704 709 717 716 711 712 719 725 721 713 715 728 730 726 733 724 702 695 699 708 705 696 719 752 749 730 721 712 710 717 722 731 734 734 737 739 742 743 746 751 751
797 793 790 787 784 780 777 773 769 765 762 758 754 751 748 747 744 742 743 741 742 742 742 744 741 742 743 724 703 699 700 700 699 699 701 699 700 702 701 703 704 705 707 705 705 705 703 705 709 714 717 716 722 732 735 735 728 717 728 735 724 726 726 714 700 690 698 707 706 719 741 742 728 718 710 709 717 722 728 732 733 735 737 740 743 744 748 750
797 793 789 787 784 780 776 772 768 764 760 755 751 746 744 743 740 740 740 740 742 740 741 740 734 740 734 711 703 703 696 695 695 696 697 697 698 699 698 699 700 702 703 703 704 705 705 709 713 714 717 722 724 729 744 754 746 727 725 731 723 717 720 720 710 691 690 708 716 718 730 734 723 714 711 710 715 722 727 730 731 733 735 737 741 742 745 748
798 793 789 786 783 780 776 772 768 764 759 754 749 745 740 739 738 738 739 739 740 741 743 737 736 745 729 705 706 702 690 690 692 692 694 696 696 696 695 696 698 701 705 708 707 708 711 711 716 723 724 726 724 729 748 752 742 733 727 729 727 716 712 715 714 700 695 710 720 723 730 730 720 712 711 711 713 721 725 726 728 730 733 736 738 740 743 746
798 793 789 785 781 779 775 771 767 764 759 753 748 743 736 735 735 737 738 738 739 741 738 730 732 737 719 700 696 690 684 686 690 692 692 693 695 695 694 694 697 703 712 719 716 711 714 717 723 731 730 727 725 725 733 731 724 723 716 718 723 718 709 704 704 697 696 713 723 725 730 730 725 716 712 712 712 719 723 722 725 728 729 733 737 738 740 743
797 793 789 784 780 777 773 770 766 763 760 754 749 743 738 737 738 736 735 735 732 727 721 717 718 716 706 696 689 686 685 685 689 690 689 691 692 695 696 696 701 707 714 720 719 709 710 726 730 728 726 720 717 716 716 715 713 712 710 711 711 712 710 700 697 692 691 714 724 720 725 727 726 718 712 713 712 717 723 723 724 726 728 730 734 737 737 740
796 793 789 784 779 775 772 768 764 762 760 756 754 750 743 742 746 743 736 730 722 715 713 708 705 705 700 694 686 683 687 690 690 687 688 689 689 698 702 701 711 717 714 713 712 706 711 728 725 715 713 709 708 710 709 711 711 711 712 712 707 706 706 695 691 688 687 710 721 716 723 727 726 721 711 711 716 719 719 721 724 723 725 727 730 734 735 735
796 793 788 785 778 773 770 766 762 760 759 756 755 751 743 743 747 744 740 733 717 709 709 702 699 697 690 689 685 683 689 694 694 688 686 687 690 702 703 704 717 717 710 710 712 715 721 724 714 703 702 703 704 703 705 711 711 712 712 713 713 705 700 694 687 684 688 707 718 716 723 726 722 719 712 711 715 716 712 714 718 719 722 724 727 731 732 733
796 792 789 785 779 773 768 764 761 758 757 755 753 748 743 744 744 742 743 738 718 703 701 698 695 693 688 687 683 684 692 695 697 690 682 687 693 697 701 706 714 712 709 712 715 721 725 717 703 697 697 701 706 702 705 711 711 712 711 716 718 704 703 708 695 684 688 701 710 713 722 723 718 717 715 712 710 710 708 707 709 712 716 719 720 724 727 731
795 792 790 785 780 774 766 764 760 757 757 754 750 747 745 746 744 743 742 737 721 697 685 683 681 683 683 679 676 683 691 688 690 686 676 684 692 692 698 702 708 712 708 707 709 713 713 701 691 694 696 699 706 705 705 712 715 712 706 710 713 703 702 703 692 686 692 700 701 710 731 731 720 721 720 713 709 707 707 707 709 709 710 713 714 717 721 725
794 792 789 785 783 775 767 764 759 758 757 752 748 745 746 747 744 745 743 740 725 692 674 672 672 672 668 669 672 674 683 683 681 678 669 675 686 692 696 694 701 712 707 701 705 708 702 687 682 693 697 696 703 706 702 706 715 714 705 699 700 699 698 694 689 694 712 724 708 712 750 750 723 720 720 712 710 709 707 708 711 710 709 712 714 715 716 719
793 791 788 786 784 777 769 762 758 760 755 750 749 746 748 747 744 746 744 745 729 690 673 672 669 666 660 665 667 667 687 687 669 667 666 669 674 682 695 694 693 703 699 695 699 699 693 681 679 690 695 696 701 703 695 696 711 717 701 690 691 693 695 694 693 699 721 733 710 707 746 756 733 722 716 709 711 714 712 711 710 709 709 711 713 713 713 714
793 790 788 786 783 782 778 766 763 763 755 751 750 749 750 746 746 745 746 754 726 678 670 671 664 662 658 658 658 673 697 683 663 665 662 665 668 673 693 697 694 696 687 691 704 695 684 683 683 685 691 697 701 701 691 687 706 710 689 682 689 692 696 696 694 701 709 715 710 706 725 747 745 726 710 707 713 718 718 715 710 708 708 708 709 709 710 711
793 788 787 785 782 783 783 775 768 763 758 754 751 753 750 746 748 744 754 764 714 659 663 670 660 657 654 652 656 671 678 665 671 673 653 658 667 672 693 694 691 694 681 692 711 693 676 685 686 683 690 695 693 690 682 682 698 695 677 678 683 686 693 691 692 700 698 709 726 717 715 743 749 723 706 708 715 723 724 718 711 706 705 705 705 705 706 707
791 787 785 783 780 778 779 777 770 762 758 755 754 754 749 749 748 744 761 760 701 654 659 663 661 662 659 660 665 669 665 661 670 663 649 658 661 667 687 685 682 688 680 686 699 686 672 673 673 676 685 687 683 677 673 680 689 681 672 676 678 680 686 689 695 698 698 714 731 720 717 744 750 724 713 716 717 720 719 712 707 702 700 701 702 703 702 703
789 786 783 782 779 777 776 774 767 761 758 756 757 753 750 751 749 757 769 743 693 664 658 661 667 666 666 672 675 672 669 666 659 654 657 662 661 666 673 672 676 684 682 681 686 681 667 658 660 667 672 672 672 671 668 672 675 673 675 682 685 685 683 689 693 697 715 729 722 710 709 733 748 731 715 714 710 705 705 704 703 700 697 697 697 699 698 699
788 784 781 780 779 778 777 769 761 760 759 758 757 752 752 751 749 763 754 707 681 671 661 667 668 661 668 677 678 673 671 668 658 661 670 666 670 677 678 679 683 689 692 688 686 681 672 666 663 661 659 661 667 670 666 664 666 673 682 689 700 702 696 701 702 706 731 736 713 701 700 718 743 732 707 700 694 690 693 694 695 695 693 692 693 693 693 695
787 782 779 776 774 774 774 765 758 761 759 758 759 752 754 757 753 751 724 688 684 674 659 668 665 659 668 671 671 671 671 669 660 663 672 672 677 680 682 686 687 699 709 699 691 686 680 674 664 658 656 658 668 677 675 670 669 677 685 695 713 724 722 725 723 719 730 725 702 696 700 711 724 713 696 691 686 682 682 680 681 684 685 686 687 688 688 690
785 780 775 771 770 768 765 761 759 761 759 759 759 752 756 763 747 726 708 694 683 658 647 657 655 656 665 669 670 665 666 669 660 662 667 668 676 677 676 675 672 689 702 695 694 694 689 679 665 664 662 655 663 679 689 684 676 679 686 697 715 728 738 743 733 727 729 716 695 688 697 710 711 696 685 683 679 674 670 669 671 673 676 680 681 683 685 687
781 776 771 766 765 763 759 760 759 759 760 758 757 756 761 759 730 706 703 694 674 653 648 653 652 655 661 667 666 657 664 669 657 660 667 667 676 677 674 672 667 673 682 686 689 690 699 695 674 669 665 657 659 666 674 676 676 679 677 686 702 710 725 735 731 731 730 715 699 692 699 710 708 688 671 668 668 665 663 662 663 666 668 671 675 678 682 686
776 772 769 763 760 757 754 757 757 758 759 756 757 759 755 741 719 704 698 685 674 667 659 653 654 661 661 660 658 648 654 663 655 657 664 666 672 671 668 669 664 664 674 688 685 677 691 689 663 656 653 651 660 657 655 669 683 678 669 682 694 689 697 712 712 708 709 713 709 700 695 688 678 667 655 657 661 659 661 659 659 664 665 666 672 676 680 684
774 768 765 760 756 753 751 752 754 756 756 754 758 753 736 720 709 700 687 675 672 669 666 663 660 666 667 658 657 650 644 648 652 656 659 660 663 660 658 657 654 657 664 676 678 672 685 680 652 649 651 645 654 656 652 667 680 674 674 684 679 666 678 703 708 693 696 719 713 696 691 679 669 667 656 657 663 659 659 659 658 662 664 665 670 673 677 679
775 768 762 755 751 750 748 749 751 753 752 753 754 740 720 710 701 692 681 673 669 663 668 674 664 663 668 660 655 652 645 645 647 652 656 657 656 651 649 646 642 646 649 657 665 660 669 674 649 645 658 647 641 651 652 653 660 670 677 672 662 664 671 687 709 709 709 724 712 693 696 692 690 688 667 661 669 663 659 660 657 659 663 664 666 669 672 672
778 771 761 748 744 745 745 747 749 750 750 751 747 732 719 710 698 690 683 676 674 669 671 675 663 654 660 660 654 645 644 649 649 649 652 652 649 641 641 642 635 635 637 644 657 650 654 674 656 636 649 646 635 653 665 653 648 657 658 649 659 686 691 688 707 717 715 722 716 700 695 692 690 684 670 667 669 664 661 660 658 659 660 660 661 664 668 668
778 771 759 744 741 743 745 748 747 747 749 748 742 730 719 711 701 693 688 682 682 681 677 673 663 655 653 652 651 643 640 646 648 648 648 647 644 631 628 635 632 630 630 636 652 648 646 671 670 637 632 642 643 658 672 665 653 652 652 649 654 670 680 684 692 697 703 716 718 708 701 692 676 661 658 661 659 658 661 661 660 658 653 652 655 659 664 665
777 772 758 744 742 744 746 748 746 745 746 741 733 723 713 708 701 694 688 686 685 683 679 672 664 662 656 647 646 641 636 638 638 642 642 638 638 629 619 624 628 626 625 630 642 646 645 663 673 647 629 642 653 654 659 663 662 665 669 668 662 658 662 674 678 676 686 706 714 712 709 691 660 642 644 647 646 648 653 656 656 653 648 646 646 651 656 657
778 774 757 742 743 746 745 747 745 742 740 733 726 720 712 706 701 693 686 683 680 675 673 672 667 663 658 652 647 639 635 634 630 633 636 632 635 633 616 612 620 621 624 632 638 643 647 656 667 658 644 648 651 639 640 648 651 660 667 666 665 661 667 687 692 674 670 688 698 703 708 686 648 632 633 635 636 638 641 648 650 647 648 646 639 640 646 648
780 771 754 742 744 747 746 744 739 734 731 726 719 714 709 704 700 696 690 684 680 673 667 667 667 664 660 655 648 640 637 636 631 629 628 624 627 627 611 603 610 613 619 632 633 630 636 647 659 661 648 641 635 625 629 636 636 644 652 652 655 656 661 683 695 680 669 674 676 684 696 677 640 626 629 629 629 629 632 639 641 641 644 643 637 634 638 641
778 768 756 747 746 747 747 743 737 732 726 718 713 709 704 701 698 694 690 686 682 677 671 666 663 663 661 655 649 645 642 639 634 626 620 617 615 613 605 600 603 608 615 626 628 624 631 645 658 662 650 636 626 618 619 625 633 644 646 641 646 650 649 655 663 665 671 673 671 684 697 674 638 624 625 626 625 625 626 629 634 637 636 635 633 632 636 640
778 769 759 750 746 746 746 742 736 733 725 716 711 707 701 697 694 691 689 686 681 676 673 667 660 658 657 653 651 649 648 648 640 627 619 618 609 599 598 597 599 605 611 617 619 621 635 647 655 667 672 666 654 642 635 634 637 646 645 638 639 642 645 648 647 655 670 670 669 685 693 669 638 626 625 626 627 626 623 623 628 632 631 630 629 631 637 641
780 770 757 748 742 741 739 734 730 727 722 716 710 704 699 694 688 686 685 681 676 673 672 665 657 654 652 651 652 649 648 650 647 634 626 622 608 592 591 594 596 600 605 606 604 611 630 642 648 663 678 683 679 664 650 645 642 642 642 640 639 638 644 652 655 664 674 668 664 674 675 656 636 629 630 630 630 629 625 625 627 627 627 627 629 633 636 638
782 772 759 747 738 732 729 724 723 722 719 719 718 711 708 704 694 687 685 682 673 668 668 663 656 657 657 656 658 655 649 647 647 641 634 629 616 598 589 589 591 597 605 608 603 608 625 634 637 649 657 659 661 650 634 634 642 645 644 642 640 637 637 644 657 666 667 665 666 663 658 656 646 636 635 633 631 631 631 631 631 628 626 626 629 634 635 637
783 774 762 753 745 737 730 724 722 723 724 729 733 726 719 715 707 697 692 689 680 671 669 665 661 662 662 660 661 659 652 646 646 645 641 635 623 606 593 590 591 595 604 610 608 613 629 634 631 638 643 638 638 634 625 627 635 640 641 641 641 638 635 641 652 653 652 665 673 655 647 659 654 638 634 633 630 630 631 632 632 629 627 626 629 634 636 639
781 772 762 759 757 749 741 734 729 729 731 734 736 732 727 723 718 711 701 693 686 681 680 680 677 675 672 670 672 671 663 654 648 645 641 637 631 620 606 598 593 593 602 611 610 614 630 634 625 628 637 634 630 629 624 623 627 630 632 635 635 637 639 641 643 639 640 657 665 650 646 655 649 635 630 627 626 627 626 626 626 625 625 626 631 637 640 642
777 771 763 762 764 759 749 740 734 732 732 733 733 733 731 728 723 717 709 702 696 692 694 698 696 692 690 690 691 690 687 683 675 662 649 643 637 629 623 615 601 593 601 613 613 613 626 633 625 625 632 630 628 629 625 624 626 626 626 627 627 630 634 636 635 631 631 642 646 641 645 646 637 630 626 619 618 620 619 620 621 623 626 628 632 637 639 640
777 773 768 767 767 762 753 743 737 733 730 730 732 729 726 727 725 719 713 712 711 704 704 710 708 702 702 702 700 698 696 700 700 687 673 668 657 641 632 625 609 599 605 614 616 617 628 637 630 628 634 629 621 624 628 628 628 626 623 623 624 627 628 630 632 631 632 639 637 635 643 643 630 622 620 616 615 617 620 623 624 624 626 628 631 634 634 634
776 773 772 774 769 761 755 747 739 736 730 727 728 724 720 720 719 717 713 711 713 711 708 711 712 708 705 704 704 702 696 695 696 688 679 678 671 656 644 630 614 609 614 618 620 621 629 637 632 634 646 640 622 623 629 628 630 633 629 624 625 627 628 625 623 626 632 638 638 639 646 643 627 619 620 618 616 620 624 625 625 624 623 626 629 630 630 630
775 773 773 775 769 760 757 751 743 739 731 722 721 720 718 715 710 711 712 707 706 710 708 707 711 712 711 709 707 703 697 691 688 682 674 667 659 651 645 633 618 614 619 620 620 620 626 634 635 640 652 646 629 625 627 632 646 649 633 622 620 621 622 619 613 615 621 628 637 642 639 629 619 619 624 622 619 621 623 622 622 622 621 622 623 624 625 625